{"data":{"norad_id":61945,"epoch":"2026-09-21T20:13:22.991808Z","epoch_age_seconds":69630,"freshness":"FRESH","line1":"1 61945U 24209G   26264.84262722  .00118987  00000+0  97285-3 0  9992","line2":"2 61945  53.1567 124.4677 0000776 102.1245 257.9860 15.69712510107484","mean_motion":15.6971251,"eccentricity":7.76e-5,"inclination_deg":53.1567,"raan_deg":124.4677,"arg_perigee_deg":102.1245,"mean_anomaly_deg":257.986,"bstar":0.00097285,"rev_number":10748,"period_min":91.736543527961,"perigee_km":359.19671010047,"apogee_km":360.24242543979,"semimajor_km":6737.8565677701,"source":"CELESTRAK","updated_at":"2026-09-22T09:00:49.454776Z"}}